| time (UTC) | temp F | wind direction | speed knots | gust knots | rain 1hr in | rain 24hr in | rain mn in | humidity % | barometer mb |
| 20260507192105 | 47 | 135 | 0.9 | 2.6 | 0.00 | 0.00 | 0.00 | 88 | 1017.2 |
| 20260507191111 | 47 | 91 | 0.9 | 1.7 | 0.00 | 0.00 | 0.00 | 87 | 1017.1 |
| 20260507190106 | 47 | 80 | 0.9 | 2.6 | 0.00 | 0.00 | 0.00 | 88 | 1017.0 |
| 20260507185107 | 47 | 82 | 0.0 | 0.0 | 0.00 | 0.00 | 0.00 | 89 | 1017.1 |
| 20260507184114 | 47 | 74 | 0.0 | 0.0 | 0.00 | 0.00 | 0.00 | 89 | 1017.0 |
| 20260507183113 | 48 | 39 | 1.7 | 2.6 | 0.00 | 0.00 | 0.00 | 91 | 1017.0 |
| 20260507181105 | 48 | 52 | 0.9 | 1.7 | 0.00 | 0.00 | 0.00 | 90 | 1016.9 |
| 20260507180108 | 48 | 31 | 1.7 | 2.6 | 0.00 | 0.00 | 0.00 | 91 | 1016.8 |
| 20260507173108 | 49 | 32 | 1.7 | 2.6 | 0.00 | 0.00 | 0.00 | 89 | 1016.6 |
| 20260507171106 | 49 | 21 | 1.7 | 3.5 | 0.00 | 0.00 | 0.00 | 86 | 1016.6 |
| 20260507170110 | 50 | 19 | 1.7 | 3.5 | 0.00 | 0.00 | 0.00 | 84 | 1016.5 |
| 20260507165107 | 50 | 19 | 1.7 | 3.5 | 0.00 | 0.00 | 0.00 | 83 | 1016.5 |
| 20260507164108 | 50 | 18 | 1.7 | 3.5 | 0.00 | 0.00 | 0.00 | 81 | 1016.5 |
| 20260507163101 | 50 | 16 | 2.6 | 4.3 | 0.00 | 0.00 | 0.00 | 80 | 1016.5 |
| 20260507161104 | 50 | 14 | 2.6 | 4.3 | 0.00 | 0.00 | 0.00 | 80 | 1016.6 |
| 20260507155104 | 50 | 20 | 2.6 | 4.3 | 0.00 | 0.00 | 0.00 | 79 | 1016.5 |
| 20260507153101 | 50 | 353 | 2.6 | 3.5 | 0.00 | 0.00 | 0.00 | 80 | 1016.6 |
| 20260507152101 | 50 | 341 | 2.6 | 4.3 | 0.00 | 0.00 | 0.00 | 82 | 1016.5 |
| 20260507150059 | 50 | 355 | 2.6 | 4.3 | 0.00 | 0.00 | 0.00 | 81 | 1016.6 |
| 20260507145059 | 49 | 349 | 2.6 | 4.3 | 0.00 | 0.00 | 0.00 | 82 | 1016.6 |
| 20260507144059 | 49 | 337 | 2.6 | 4.3 | 0.00 | 0.00 | 0.00 | 81 | 1016.6 |
| 20260507143059 | 49 | 337 | 2.6 | 3.5 | 0.00 | 0.00 | 0.00 | 83 | 1016.6 |
| 20260507142058 | 49 | 354 | 1.7 | 3.5 | 0.00 | 0.00 | 0.00 | 82 | 1016.6 |
| 20260507141057 | 49 | 351 | 2.6 | 5.2 | 0.00 | 0.00 | 0.00 | 81 | 1016.6 |
| 20260507135059 | 50 | 45 | 1.7 | 4.3 | 0.00 | 0.01 | 0.00 | 78 | 1016.5 |
| 20260507134059 | 51 | 101 | 1.7 | 4.3 | 0.00 | 0.01 | 0.00 | 75 | 1016.4 |
| 20260507133101 | 51 | 117 | 1.7 | 4.3 | 0.00 | 0.01 | 0.00 | 75 | 1016.4 |
| 20260507132100 | 52 | 313 | 2.6 | 7.0 | 0.00 | 0.01 | 0.00 | 77 | 1016.3 |
| 20260507130100 | 50 | 322 | 3.5 | 7.8 | 0.00 | 0.01 | 0.00 | 78 | 1016.5 |
| 20260507124101 | 49 | 47 | 3.5 | 6.1 | 0.00 | 0.01 | 0.00 | 80 | 1016.6 |
| 20260507123100 | 49 | 57 | 3.5 | 6.1 | 0.00 | 0.01 | 0.00 | 81 | 1016.6 |
| 20260507122059 | 48 | 53 | 3.5 | 5.2 | 0.00 | 0.01 | 0.00 | 81 | 1016.6 |
| 20260507121058 | 48 | 49 | 4.3 | 7.0 | 0.00 | 0.01 | 0.00 | 83 | 1016.6 |
| 20260507120058 | 48 | 37 | 5.2 | 6.1 | 0.00 | 0.01 | 0.00 | 83 | 1016.6 |
| 20260507114059 | 48 | 39 | 5.2 | 7.8 | 0.00 | 0.01 | 0.00 | 84 | 1016.6 |
| 20260507113058 | 49 | 43 | 4.3 | 7.8 | 0.00 | 0.01 | 0.00 | 82 | 1016.5 |
| 20260507112101 | 49 | 25 | 1.7 | 6.1 | 0.00 | 0.01 | 0.00 | 82 | 1016.4 |
| 20260507110058 | 48 | 300 | 2.6 | 6.1 | 0.00 | 0.01 | 0.00 | 83 | 1016.5 |
| 20260507105059 | 48 | 338 | 2.6 | 5.2 | 0.00 | 0.01 | 0.00 | 85 | 1016.5 |
| 20260507104056 | 48 | 356 | 3.5 | 6.1 | 0.00 | 0.01 | 0.00 | 87 | 1016.5 |
| 20260507095055 | 47 | 346 | 3.5 | 7.0 | 0.00 | 0.02 | 0.00 | 88 | 1016.3 |
| 20260507094057 | 47 | 354 | 2.6 | 6.1 | 0.00 | 0.02 | 0.00 | 87 | 1016.2 |
| 20260507093057 | 47 | 1 | 3.5 | 7.0 | 0.00 | 0.03 | 0.00 | 87 | 1016.2 |
| 20260507092058 | 48 | 320 | 3.5 | 6.1 | 0.00 | 0.04 | 0.00 | 88 | 1016.0 |
| 20260507091058 | 46 | 358 | 3.5 | 7.8 | 0.00 | 0.05 | 0.00 | 89 | 1016.1 |
| 20260507090059 | 46 | 3 | 4.3 | 7.8 | 0.00 | 0.06 | 0.00 | 90 | 1016.1 |
| 20260507085058 | 46 | 3 | 4.3 | 7.0 | 0.00 | 0.07 | 0.00 | 92 | 1016.1 |
| 20260507084059 | 45 | 342 | 3.5 | 5.2 | 0.00 | 0.08 | 0.00 | 93 | 1016.2 |
| 20260507083100 | 44 | 344 | 2.6 | 5.2 | 0.00 | 0.09 | 0.00 | 92 | 1016.1 |
| 20260507081100 | 44 | 351 | 2.6 | 6.1 | 0.00 | 0.11 | 0.00 | 94 | 1016.1 |
| 20260507080055 | 44 | 4 | 2.6 | 7.8 | 0.00 | 0.12 | 0.00 | 95 | 1016.1 |
| 20260507075100 | 43 | 12 | 3.5 | 6.1 | 0.00 | 0.13 | 0.00 | 96 | 1015.9 |
| 20260507072057 | 42 | 345 | 3.5 | 7.0 | 0.00 | 0.15 | 0.00 | 98 | 1015.8 |
| 20260507071058 | 42 | 349 | 2.6 | 4.3 | 0.00 | 0.16 | 0.00 | 98 | 1015.8 |
| 20260507070057 | 42 | 318 | 3.5 | 6.1 | 0.00 | 0.16 | 0.00 | 99 | 1015.7 |
| 20260507065055 | 42 | 316 | 2.6 | 5.2 | 0.00 | 0.17 | 0.00 | 99 | 1015.6 |
| 20260507064056 | 42 | 335 | 2.6 | 5.2 | 0.00 | 0.17 | 0.00 | 99 | 1015.5 |
| 20260507063053 | 42 | 338 | 2.6 | 4.3 | 0.00 | 0.17 | 0.00 | 10 | 1015.5 |
| 20260507060056 | 41 | 8 | 3.5 | 6.1 | 0.00 | 0.17 | 0.00 | 10 | 1015.3 |
| 20260507055051 | 41 | 6 | 3.5 | 5.2 | 0.00 | 0.17 | 0.00 | 10 | 1015.2 |
| 20260507054056 | 41 | 14 | 3.5 | 6.1 | 0.00 | 0.17 | 0.00 | 10 | 1015.2 |
| 20260507052056 | 41 | 16 | 4.3 | 7.0 | 0.00 | 0.17 | 0.00 | 10 | 1014.9 |
| 20260507051057 | 41 | 15 | 4.3 | 7.8 | 0.00 | 0.17 | 0.00 | 10 | 1014.7 |
| 20260507050055 | 41 | 11 | 4.3 | 6.1 | 0.00 | 0.17 | 0.00 | 10 | 1014.6 |
| 20260507045056 | 41 | 16 | 4.3 | 6.1 | 0.00 | 0.17 | 0.00 | 10 | 1014.5 |
| 20260507044058 | 41 | 18 | 3.5 | 7.0 | 0.00 | 0.18 | 0.00 | 10 | 1014.5 |
| 20260507043056 | 41 | 16 | 3.5 | 4.3 | 0.00 | 0.18 | 0.00 | 10 | 1014.4 |
| 20260507042057 | 40 | 20 | 3.5 | 6.1 | 0.00 | 0.18 | 0.00 | 10 | 1014.3 |
| 20260507041055 | 40 | 20 | 3.5 | 7.0 | 0.00 | 0.18 | 0.00 | 10 | 1014.2 |
| 20260507040058 | 40 | 18 | 3.5 | 6.1 | 0.00 | 0.19 | 0.00 | 10 | 1014.2 |
| 20260507035056 | 40 | 17 | 3.5 | 6.1 | 0.00 | 0.19 | 0.00 | 10 | 1014.1 |
| 20260507034056 | 40 | 21 | 3.5 | 5.2 | 0.00 | 0.19 | 0.00 | 10 | 1014.0 |
| 20260507033055 | 40 | 12 | 2.6 | 4.3 | 0.00 | 0.19 | 0.00 | 10 | 1014.0 |
| 20260507032057 | 40 | 19 | 3.5 | 4.3 | 0.00 | 0.19 | 0.00 | 10 | 1014.0 |
| 20260507031055 | 40 | 19 | 3.5 | 6.1 | 0.00 | 0.20 | 0.00 | 10 | 1013.9 |
| 20260507025054 | 40 | 20 | 3.5 | 5.2 | 0.00 | 0.20 | 0.00 | 10 | 1013.7 |
| 20260507024054 | 40 | 33 | 3.5 | 7.0 | 0.00 | 0.20 | 0.00 | 10 | 1013.7 |
| 20260507023057 | 41 | 32 | 5.2 | 7.8 | 0.00 | 0.20 | 0.00 | 10 | 1013.7 |
| 20260507022057 | 41 | 40 | 4.3 | 7.0 | 0.00 | 0.20 | 0.00 | 10 | 1013.6 |
| 20260507021056 | 41 | 35 | 4.3 | 7.0 | 0.00 | 0.20 | 0.00 | 10 | 1013.4 |
| 20260507020055 | 41 | 12 | 4.3 | 8.7 | 0.00 | 0.21 | 0.00 | 10 | 1013.3 |
| 20260507013054 | 41 | 10 | 5.2 | 8.7 | 0.00 | 0.22 | 0.00 | 10 | 1013.3 |
| 20260507012053 | 41 | 18 | 5.2 | 8.7 | 0.00 | 0.22 | 0.00 | 10 | 1013.3 |
| 20260507011057 | 41 | 20 | 4.3 | 7.8 | 0.00 | 0.23 | 0.00 | 10 | 1013.2 |
| 20260507010059 | 41 | 16 | 6.1 | 9.6 | 0.00 | 0.23 | 0.00 | 10 | 1013.2 |
| 20260507005055 | 41 | 20 | 5.2 | 7.8 | 0.00 | 0.23 | 0.00 | 10 | 1013.2 |
| 20260507004057 | 41 | 18 | 6.1 | 9.6 | 0.00 | 0.23 | 0.00 | 10 | 1013.2 |
| 20260507003055 | 41 | 8 | 5.2 | 8.7 | 0.00 | 0.23 | 0.00 | 10 | 1013.0 |
| 20260507002056 | 42 | 9 | 5.2 | 7.8 | 0.00 | 0.23 | 0.00 | 10 | 1012.9 |
| 20260507001055 | 42 | 14 | 4.3 | 7.0 | 0.00 | 0.23 | 0.00 | 10 | 1012.9 |
| 20260506234104 | 42 | 8 | 4.3 | 8.7 | 0.00 | 0.24 | 0.00 | 10 | 1012.8 |
| 20260506233103 | 42 | 14 | 4.3 | 7.8 | 0.00 | 0.24 | 0.00 | 10 | 1012.8 |
| 20260506232101 | 42 | 10 | 3.5 | 6.1 | 0.00 | 0.24 | 0.00 | 10 | 1012.8 |
| 20260506231102 | 42 | 22 | 5.2 | 7.8 | 0.00 | 0.24 | 0.00 | 10 | 1012.7 |
| 20260506230105 | 42 | 21 | 6.1 | 9.6 | 0.00 | 0.25 | 0.00 | 10 | 1012.6 |
| 20260506225101 | 42 | 25 | 5.2 | 7.8 | 0.00 | 0.25 | 0.00 | 10 | 1012.7 |
| 20260506223100 | 42 | 18 | 4.3 | 7.8 | 0.00 | 0.27 | 0.00 | 10 | 1012.6 |
| 20260506222104 | 42 | 9 | 3.5 | 6.1 | 0.00 | 0.28 | 0.00 | 99 | 1012.4 |
| 20260506221102 | 42 | 4 | 3.5 | 6.1 | 0.00 | 0.28 | 0.00 | 99 | 1012.3 |
| 20260506220112 | 42 | 5 | 3.5 | 7.0 | 0.00 | 0.28 | 0.00 | 99 | 1012.2 |
| 20260506215109 | 42 | 352 | 3.5 | 7.8 | 0.00 | 0.29 | 0.28 | 99 | 1012.1 |
| 20260506214108 | 42 | 358 | 4.3 | 7.8 | 0.00 | 0.29 | 0.28 | 99 | 1012.0 |
| 20260506213108 | 41 | 244 | 3.5 | 6.1 | 0.00 | 0.30 | 0.28 | 99 | 1012.0 |
| 20260506212107 | 41 | 9 | 3.5 | 7.0 | 0.00 | 0.31 | 0.28 | 99 | 1012.0 |
| 20260506211106 | 41 | 8 | 5.2 | 8.7 | 0.00 | 0.31 | 0.28 | 99 | 1011.9 |
| 20260506205106 | 41 | 18 | 6.1 | 9.6 | 0.00 | 0.31 | 0.28 | 99 | 1011.9 |
| 20260506204105 | 41 | 24 | 5.2 | 8.7 | 0.00 | 0.31 | 0.28 | 99 | 1011.8 |
| 20260506203108 | 41 | 24 | 4.3 | 7.8 | 0.00 | 0.31 | 0.28 | 98 | 1011.7 |
| 20260506202109 | 41 | 22 | 5.2 | 7.8 | 0.00 | 0.32 | 0.28 | 98 | 1011.6 |
| 20260506201109 | 41 | 20 | 5.2 | 7.8 | 0.00 | 0.33 | 0.28 | 98 | 1011.4 |
| 20260506200108 | 41 | 18 | 6.1 | 7.8 | 0.00 | 0.35 | 0.28 | 98 | 1011.3 |
| 20260506195106 | 41 | 17 | 4.3 | 7.0 | 0.00 | 0.36 | 0.28 | 98 | 1011.3 |
| 20260506193108 | 42 | 18 | 3.5 | 6.1 | 0.00 | 0.37 | 0.28 | 97 | 1011.2 |